Location: Unspecified
(0.0000°N, 0.0000°E)
Time: 03:21:47
(UTC+02:00)

Ariane H10+ - Visible Passes

Search period start: 04 August 2015 00:00
Search period end: 14 August 2015 00:00
Orbit: 285 x 31557 km, 6.7° (Epoch: 03 August)

Date Brightness Start Highest point End Pass type
(mag) Time Alt. Az. Time Alt. Az. Time Alt. Az.
04 Aug 5.6 15:21:32 10° WSW 15:25:22 81° S 23:09:11 10° E visible
05 Aug 5.0 01:48:38 10° W 09:31:02 52° SSW 09:35:00 10° ESE visible
05 Aug 8.8 19:08:19 10° W 19:29:37 80° N 03:41:09 10° E visible
06 Aug 6.7 23:07:23 10° W 07:22:27 75° S 07:31:22 10° ESE visible
07 Aug 7.3 17:03:26 10° W 17:11:27 83° N 01:26:21 10° E visible
08 Aug 8.3 20:53:13 10° W 05:02:17 86° S 05:26:06 10° E visible
09 Aug 5.5 14:59:18 10° WSW 15:02:50 82° S 22:36:31 10° E visible
10 Aug 5.2 01:18:22 10° W 09:08:04 55° SSW 09:12:22 10° ESE visible
10 Aug 8.6 18:45:15 10° W 19:04:13 80° N 03:17:22 10° E visible
11 Aug 6.8 22:42:09 10° W 06:57:45 75° S 07:07:36 10° ESE visible
12 Aug 7.2 16:39:28 10° W 16:46:46 82° N 00:59:58 10° E visible
